Moline, IL

7:18 PM CST on November 24, 2017 (GMT -0600)
Quad-City International

Weather History for KMLI - October, 2011

Change the Weather History Date:

Sunday, October 23, 2011

  Actual Average Record
Temperature  
Mean Temperature 52 °F 51 °F  
Max Temperature 70 °F 61 °F 85 °F (1963)
Min Temperature 34 °F 40 °F 23 °F (1981)
Degree Days  
Heating Degree Days 13 14  
Month to date heating degree days 211 250  
Since 1 July heating degree days 377 354  
Cooling Degree Days 0 0  
Month to date cooling degree days 11 11  
Year to date cooling degree days 1126 1000  
Growing Degree Days 3 (Base 50)    
Moisture  
Dew Point 40 °F    
Average Humidity 66    
Maximum Humidity 92    
Minimum Humidity 40    
Precipitation  
Precipitation 0.00 in 0.09 in 1.53 in (1991)
Month to date precipitation 0.60 2.18  
Year to date precipitation 27.66 32.43  
Snow  
Snow 0.00 in 0.00 in - ()
Month to date snowfall 0.0 0.0  
Since 1 July snowfall 0.0 0.0  
Since 1 September snowfall 0.0 0.0  
Snow Depth 0.00 in    
Sea Level Pressure  
Sea Level Pressure 29.93 in    
Wind  
Wind Speed 6 mph (SW)    
Max Wind Speed 23 mph    
Max Gust Speed 33 mph    
Visibility 9 miles    
Events      
T = Trace of Precipitation, MM = Missing Value Source: NWS Daily Summary

Daily Weather History Graph

Daily Weather History Graph

Search for Another Location

Airport or City:

Trip Planner

Search our weather history database for the weather conditions in past years. The results will help you decide how hot, cold, wet, or windy it might be!

Date:

Astronomy

Oct. 23, 2011 Rise Set
Actual Time 7:22 AM CDT 6:09 PM CDT
Civil Twilight 6:54 AM CDT 6:37 PM CDT
Nautical Twilight 6:22 AM CDT 7:09 PM CDT
Astronomical Twilight 5:50 AM CDT 7:41 PM CDT
Moon 3:27 AM CDT (10/23) 4:02 PM CDT (10/23)
Length of Visible Light 11h 43m
Length of Day
10h 46m
Waning Crescent, 14% of the Moon is Illuminated
Oct 23
Waning Crescent
Oct 26
New
Nov 2
First Quarter
Nov 10
Full
Nov 18
Last Quarter

Hourly Weather History & Observations

Time (CDT) Temp. Dew Point Humidity Pressure Visibility Wind Dir Wind Speed Gust Speed Precip Events Conditions
12:52 AM 39.0 °F 35.1 °F 86% 30.00 in 10.0 mi Calm Calm - N/A   Clear
1:52 AM 39.0 °F 35.1 °F 86% 30.01 in 10.0 mi Calm Calm - N/A   Clear
2:52 AM 37.0 °F 34.0 °F 89% 30.01 in 9.0 mi Calm Calm - N/A   Clear
3:52 AM 37.9 °F 35.1 °F 89% 30.00 in 8.0 mi Calm Calm - N/A   Clear
4:52 AM 37.9 °F 35.1 °F 89% 30.00 in 9.0 mi Calm Calm - N/A   Clear
5:52 AM 36.0 °F 34.0 °F 93% 30.00 in 8.0 mi Calm Calm - N/A   Clear
6:52 AM 36.0 °F 34.0 °F 93% 30.01 in 8.0 mi Calm Calm - N/A   Clear
7:52 AM 36.0 °F 33.1 °F 89% 30.00 in 8.0 mi Calm Calm - N/A   Clear
8:52 AM 43.0 °F 37.9 °F 82% 30.00 in 7.0 mi Calm Calm - N/A   Scattered Clouds
9:52 AM 51.1 °F 42.1 °F 71% 29.99 in 10.0 mi Calm Calm - N/A   Clear
10:52 AM 62.6 °F 44.6 °F 52% 29.97 in 10.0 mi Calm Calm - N/A   Clear
11:52 AM 64.4 °F 41.0 °F 42% 29.96 in 7.0 mi WSW 6.9 mph - N/A   Overcast
12:52 PM 64.0 °F 42.1 °F 45% 29.96 in 10.0 mi SW 8.1 mph - N/A   Overcast
1:52 PM 66.9 °F 44.1 °F 44% 29.92 in 10.0 mi SW 8.1 mph - N/A   Clear
2:52 PM 69.1 °F 44.1 °F 40% 29.89 in 10.0 mi SSW 12.7 mph 18.4 mph N/A   Scattered Clouds
3:52 PM 68.0 °F 45.0 °F 43% 29.88 in 10.0 mi SW 12.7 mph - N/A   Clear
4:52 PM 70.0 °F 44.1 °F 39% 29.86 in 10.0 mi SW 10.4 mph - N/A   Clear
5:52 PM 66.0 °F 44.1 °F 45% 29.86 in 10.0 mi SSW 9.2 mph - N/A   Clear
6:52 PM 62.1 °F 44.1 °F 52% 29.86 in 10.0 mi SSW 6.9 mph - N/A   Clear
7:52 PM 62.1 °F 43.0 °F 50% 29.85 in 10.0 mi SSW 10.4 mph - N/A   Clear
8:52 PM 62.1 °F 43.0 °F 50% 29.83 in 10.0 mi SSW 11.5 mph - N/A   Clear
9:52 PM 62.1 °F 42.1 °F 48% 29.83 in 10.0 mi SW 13.8 mph - N/A   Clear
10:45 PM 62.6 °F 42.8 °F 48% 29.89 in 10.0 mi WNW 11.5 mph - N/A   Mostly Cloudy
10:52 PM 62.1 °F 43.0 °F 50% 29.89 in 10.0 mi WNW 10.4 mph - N/A   Mostly Cloudy
11:52 PM 62.6 °F 46.4 °F 55% 29.89 in 10.0 mi West 9.2 mph - N/A   Overcast